This is the latest recevied weather packets stored in our database for station/object W1WRA. If no packets are shown the sender has not sent any weather packets the latest 10 day(s).
| Time | Temp. | Humidity | Pressure | Rain* | Wind** | Luminosity | Snow |
|---|---|---|---|---|---|---|---|
| 1778120724 | 13.89° C | 94% | 1006.2 hPa | 0 mm | - | 0 W/m² | - |
| 1778118925 | 14.44° C | 98% | 1005.7 hPa | 0 mm | - | 0 W/m² | - |
| 1778117725 | 14.44° C | 98% | 1005.4 hPa | 0 mm | - | 0 W/m² | - |
| 1778108127 | 14.44° C | 97% | 1005.2 hPa | 0 mm | - | 4 W/m² | - |
| 1778106947 | 15° C | 97% | 1005.2 hPa | 0 mm | - | 7 W/m² | - |
| 1778097355 | 16.11° C | 94% | 1006.1 hPa | 0.51 mm | - | 76 W/m² | - |
| 1778096730 | 16.11° C | 93% | 1006.2 hPa | 0.25 mm | - | 54 W/m² | - |
| 1778095515 | 16.11° C | 93% | 1006.2 hPa | 0.25 mm | - | 79 W/m² | - |
| 1778094315 | 16.11° C | 93% | 1006 hPa | 1.02 mm | - | 85 W/m² | - |
| 1778093716 | 16.11° C | 92% | 1006.3 hPa | 1.27 mm | - | 77 W/m² | - |
| 1778091316 | 16.67° C | 89% | 1007 hPa | 1.52 mm | - | 48 W/m² | - |
| 1778089517 | 18.89° C | 76% | 1007.4 hPa | 0.25 mm | - | 49 W/m² | - |
| 1778085918 | 20.56° C | 62% | 1007 hPa | 0 mm | - | 126 W/m² | - |
| 1778085318 | 20.56° C | 64% | 1007.1 hPa | 0 mm | - | 137 W/m² | - |
| 1778084118 | 20.56° C | 66% | 1007.3 hPa | 0 mm | - | 87 W/m² | - |
| 1778082318 | 20.56° C | 66% | 1008 hPa | 0 mm | - | 199 W/m² | - |
| 1778079319 | 20° C | 67% | 1008.2 hPa | 0 mm | - | 192 W/m² | - |
| 1778078139 | 20.56° C | 67% | 1008.4 hPa | 0 mm | - | 177 W/m² | - |
| 1778073921 | 17.22° C | 76% | 1008.6 hPa | 0 mm | - | 134 W/m² | - |
| 1778072721 | 17.22° C | 77% | 1008.8 hPa | 0 mm | - | 78 W/m² | - |
| 1778069162 | 15.56° C | 80% | 1009 hPa | 0 mm | - | 53 W/m² | - |
| 1778066742 | 14.44° C | 82% | 1009.2 hPa | 0 mm | - | 62 W/m² | - |
| 1778064943 | 13.33° C | 86% | 1009.2 hPa | 0 mm | - | 52 W/m² | - |
| 1778061923 | 12.78° C | 85% | 1009.2 hPa | 0 mm | - | 10 W/m² | - |
| 1778060744 | 12.78° C | 86% | 1009.1 hPa | 0 mm | - | 3 W/m² | - |
* Rain latest hour (hover to see other rain measurements)
** Current wind speed in m/s (hover to see current wind gust speed)